Terminal Aerodrome Forecast
Issued by NWS

Home | Current Version | Previous Version | Text Only | Print | Product List | Glossary On
Versions: 1 2 3 4 5 6 7 8 9 10 11 12 13 14 15 16 17 18 19 20 21
000
FTUS41 KGYX 251724
TAFLEB
TAF
KLEB 251724Z 2518/2618 20010G20KT P6SM BKN250
     FM252200 21008KT P6SM BKN250
     FM261500 36003KT 3SM -SN OVC040=

USA.gov is the U.S. government's official web portal to all federal, state and local government web resources and services.